Voltar ao catálogo

NATO 3A

AtivoMilitarGEO
NORAD 8808·PAYLOAD· XX

Lançado Apr 22, 1976 de Cape Canaveral Space Force Station

Loading…

TLE

AtualizadoSource: Space-Track

Época: Sep 14, 2026, 11:50 UTC

1 08808U 76035A   26257.49349523 -.00000288  00000-0  00000-0 0  9995
2 08808   4.7837 298.1941 0026637 324.3880 216.4791  0.99845467748169

Acompanhe NATO 3A em tempo real com AllMySat

Download on the App Store